FW5697 Weather Reports


time (UTC)temp
C
wind
direction
speed
KPH
gust
KPH
rain 1hr
cm
rain 24hr
cm
rain mn
cm
humidity
%
barometer
mb
20260904114537 21 0 0.0 0.0 0.00 0.00 0.00 96 1017.0
20260904113036 21 0 0.0 0.0 0.00 0.00 0.00 96 1016.9
20260904111533 21 0 0.0 0.0 0.00 0.00 0.00 96 1017.0
20260904110036 21 0 0.0 0.0 0.00 0.00 0.00 96 1016.8
20260904104534 21 0 0.0 1.6 0.00 0.00 0.00 95 1016.7
20260904103034 21 0 0.0 0.0 0.00 0.00 0.00 96 1016.6
20260904101533 21 0 0.0 0.0 0.00 0.00 0.00 96 1016.6
20260904100035 21 0 0.0 0.0 0.00 0.00 0.00 95 1016.5
20260904094541 22 0 0.0 0.0 0.00 0.00 0.00 95 1016.5
20260904093034 22 0 0.0 0.0 0.00 0.00 0.00 95 1016.5
20260904091534 22 0 0.0 0.0 0.00 0.00 0.00 95 1016.3
20260904090036 22 0 0.0 0.0 0.00 0.00 0.00 94 1016.3
20260904084532 22 0 0.0 0.0 0.00 0.00 0.00 94 1016.2
20260904083042 22 0 0.0 0.0 0.00 0.00 0.00 94 1016.3
20260904081534 22 0 0.0 0.0 0.00 0.00 0.00 94 1016.2
20260904080036 22 0 0.0 0.0 0.00 0.00 0.00 94 1016.2
20260904074535 22 0 0.0 0.0 0.00 0.00 0.00 94 1016.3
20260904073033 22 0 0.0 0.0 0.00 0.00 0.00 93 1016.0
20260904071533 23 0 0.0 0.0 0.00 0.00 0.00 93 1016.0
20260904070032 23 0 0.0 0.0 0.00 0.00 0.00 93 1016.0
20260904064532 23 0 0.0 0.0 0.00 0.00 0.00 93 1016.1
20260904063036 23 0 0.0 0.0 0.00 0.00 0.00 92 1016.2
20260904061532 23 0 0.0 0.0 0.00 0.00 0.00 92 1016.2
20260904060033 23 0 0.0 0.0 0.00 0.00 0.00 92 1016.4
20260904054532 23 0 0.0 0.0 0.00 0.00 0.00 92 1016.4
20260904053035 23 0 0.0 0.0 0.00 0.00 0.00 92 1016.3
20260904051534 23 0 0.0 0.0 0.00 0.00 0.00 91 1016.4
20260904050034 23 0 0.0 0.0 0.00 0.00 0.00 91 1016.5
20260904044535 24 0 0.0 0.0 0.00 0.00 0.00 90 1016.4
20260904043039 24 0 0.0 0.0 0.00 0.00 0.00 90 1016.4
20260904041537 24 0 0.0 0.0 0.00 0.00 0.00 89 1016.4
20260904040035 25 0 0.0 0.0 0.00 0.00 0.00 88 1016.4
20260904034543 25 0 0.0 0.0 0.00 0.00 0.00 88 1016.4
20260904033039 25 0 0.0 0.0 0.00 0.00 0.00 87 1016.5
20260904031533 25 0 0.0 0.0 0.00 0.00 0.00 86 1016.5
20260904030037 25 0 0.0 0.0 0.00 0.00 0.00 85 1016.5
20260904024542 26 0 0.0 0.0 0.00 0.00 0.00 85 1016.5
20260904023035 26 0 0.0 0.0 0.00 0.00 0.00 83 1016.6
20260904021536 26 0 0.0 0.0 0.00 0.00 0.00 83 1016.6
20260904020036 27 0 0.0 0.0 0.00 0.00 0.00 81 1016.6
20260904014538 27 0 0.0 0.0 0.00 0.00 0.00 81 1016.4
20260904013041 27 0 0.0 0.0 0.00 0.00 0.00 78 1016.3
20260904011538 27 0 0.0 0.0 0.00 0.00 0.00 78 1016.1
20260904010041 28 0 0.0 0.0 0.00 0.00 0.00 75 1015.9
20260904004535 28 0 0.0 0.0 0.00 0.00 0.00 73 1015.5
20260904003036 29 0 0.0 0.0 0.00 0.00 0.00 70 1015.5
20260904001535 30 0 0.0 1.6 0.00 0.00 0.00 68 1015.2
20260904000033 30 0 0.0 0.0 0.00 0.00 0.00 64 1015.1
20260903234535 31 0 0.0 0.0 0.00 0.00 0.00 62 1015.0
20260903233037 32 0 0.0 0.0 0.00 0.00 0.00 59 1014.9
20260903231536 33 0 0.0 0.0 0.00 0.00 0.00 56 1014.9
20260903230040 33 0 0.0 0.0 0.00 0.00 0.00 53 1014.6
20260903224551 34 0 0.0 1.6 0.00 0.00 0.00 52 1014.6
20260903223036 35 0 0.0 3.2 0.00 0.00 0.00 50 1014.4
20260903221536 35 0 0.0 3.2 0.00 0.00 0.00 49 1014.5
20260903220043 35 0 0.0 3.2 0.00 0.00 0.00 49 1014.5
20260903214540 35 83 0.0 3.2 0.00 0.00 0.00 49 1014.4
20260903213040 35 51 0.0 1.6 0.00 0.00 0.00 52 1014.5
20260903211540 35 40 0.0 3.2 0.00 0.00 0.00 49 1014.7
20260903210048 35 0 0.0 3.2 0.00 0.00 0.00 49 1014.8
20260903204542 35 98 1.6 6.4 0.00 0.00 0.00 48 1014.9
20260903203033 35 97 0.0 4.8 0.00 0.00 0.00 50 1015.0
20260903201542 34 0 0.0 1.6 0.00 0.00 0.00 53 1015.4
20260903200039 34 0 0.0 3.2 0.00 0.00 0.00 52 1015.6
20260903194536 35 0 0.0 3.2 0.00 0.00 0.00 54 1015.8
20260903193039 34 307 0.0 3.2 0.00 0.00 0.00 56 1015.9
20260903191537 34 0 0.0 0.0 0.00 0.00 0.00 56 1015.9
20260903190035 34 50 0.0 4.8 0.00 0.00 0.00 55 1016.1
20260903184535 34 0 0.0 6.4 0.00 0.00 0.00 54 1016.2
20260903183033 34 0 0.0 9.7 0.00 0.00 0.00 57 1016.5
20260903181535 33 0 0.0 6.4 0.00 0.00 0.00 59 1016.5
20260903180042 33 0 0.0 3.2 0.00 0.00 0.00 61 1016.6
20260903174536 33 0 0.0 4.8 0.00 0.00 0.00 60 1016.7
20260903173034 33 0 3.2 8.0 0.00 0.00 0.00 59 1016.9
20260903171533 32 0 0.0 1.6 0.00 0.00 0.00 63 1017.2
20260903170037 32 56 3.2 6.4 0.00 0.00 0.00 62 1017.5
20260903164533 32 103 0.0 4.8 0.00 0.00 0.00 64 1017.7
20260903163035 32 0 0.0 3.2 0.00 0.00 0.00 62 1017.8
20260903161534 32 0 0.0 3.2 0.00 0.00 0.00 65 1018.0
20260903160034 32 13 0.0 4.8 0.00 0.00 0.00 65 1018.2
20260903154555 31 0 0.0 3.2 0.00 0.00 0.00 69 1018.3
20260903153034 30 0 0.0 4.8 0.00 0.00 0.00 72 1018.2
20260903151533 30 32 0.0 4.8 0.00 0.00 0.00 74 1018.2
20260903150034 29 0 0.0 1.6 0.00 0.00 0.00 78 1018.2
20260903144535 28 0 0.0 1.6 0.00 0.00 0.00 79 1018.1
20260903143044 27 0 0.0 0.0 0.00 0.00 0.00 82 1018.1
20260903141537 27 0 0.0 0.0 0.00 0.00 0.00 83 1018.1
20260903140033 26 0 0.0 0.0 0.00 0.00 0.00 88 1018.1
20260903134532 25 0 0.0 0.0 0.00 0.00 0.00 90 1018.2
20260903133036 25 0 0.0 0.0 0.00 0.00 0.00 93 1018.1
20260903131534 23 0 0.0 0.0 0.00 0.00 0.00 95 1018.2
20260903130037 23 0 0.0 0.0 0.00 0.00 0.00 96 1018.3
20260903124542 23 0 0.0 0.0 0.00 0.00 0.00 97 1018.5
20260903123037 22 0 0.0 0.0 0.00 0.00 0.00 97 1018.4
20260903121533 22 0 0.0 0.0 0.00 0.00 0.00 96 1018.2
20260903120031 22 0 0.0 0.0 0.00 0.00 0.00 97 1018.1